If you wish to contribute or participate in the discussions about articles you are invited to join SKYbrary as a registered user

 Actions

Wick Airport

From SKYbrary Wiki

EGPC
Airport
ICAO: EGPC – IATA: WIC
Summary
Name Wick Airport
Region Europe
Territory United Kingdom GB.gif
Location Wick, Scotland
Serving Wick
Elevation 38.405 m <br />126 ft <br />126 ft38.405 m <br />
Coordinates 58° 27' 29.13" N, 3° 5' 29.63" W
Runways
Designator Length Width Surface ROPS
8/26 1036 m3,398.95 ft <br /> 45 m147.638 ft <br /> ASP /
13/31 1825 m5,987.533 ft <br /> 45 m147.638 ft <br /> ASP /


METAR
Observation EGPC 191150Z 17003KT 9999 VCSH FEW012CB 04/02 Q0993
Station Wick
Date/Time 19 January 2021 11:50:00
Wind direction 170°
Wind speed 03 kts
Lowest cloud amount few clouds
Temperature 4°C
Dew point 2°C
Humidity 86%
QNH 993 hPa
Weather condition in vicinity: showers

Wick Airport

ICAO: EGPC IATA: WIC

Description

Wick Airport is located north of the small town of Wick in Caithness at the north-eastern extremity of the mainland of Scotland.

Climatology

Temperate Marine climate/Oceanic climate (Köppen climate classification Cfb). Moderately cool summer and comparatively warm winter with a temperature range of only 14°C57.2 °F <br />287.15 K <br />516.87 °R <br />. Prevailing south-westerly winds from the Atlantic Ocean.

Maps

Terrain

Loading map...

Airport Layout

Loading map...


Accidents & Serious Incidents at or in vicinity of EGPC

None on SKYbrary